This is the latest recevied weather packets stored in our database for station/object ED1ZAI-13. If no packets are shown the sender has not sent any weather packets the latest 10 day(s).
| Time | Temp. | Humidity | Pressure | Rain* | Wind** | Luminosity | Snow |
|---|---|---|---|---|---|---|---|
| 1777645498 | 21.67° C | 38% | 1017.2 hPa | 0 mm | - | - | - |
| 1777644897 | 22.22° C | 40% | 1017.4 hPa | 0 mm | - | - | - |
| 1777644297 | 25.56° C | 38% | 1017.6 hPa | 0 mm | - | - | - |
| 1777643698 | 21.11° C | 46% | 1017.8 hPa | 0 mm | - | - | - |
| 1777643098 | 19.44° C | 51% | 1017.8 hPa | 0 mm | - | - | - |
| 1777626833 | 17.22° C | 62% | 1019.5 hPa | 0 mm | - | - | - |
| 1777626233 | 17.78° C | 60% | 1019.4 hPa | 0 mm | - | - | - |
| 1777625633 | 16.11° C | 62% | 1019.4 hPa | 0 mm | - | - | - |
| 1777625033 | 16.11° C | 62% | 1019.2 hPa | 0 mm | - | - | - |
| 1777624432 | 16.67° C | 65% | 1019.2 hPa | 0 mm | - | - | - |
| 1777623832 | 17.78° C | 58% | 1019.1 hPa | 0 mm | - | - | - |
| 1777623232 | 16.67° C | 63% | 1019.1 hPa | 0 mm | - | - | - |
| 1777622633 | 16.11° C | 62% | 1019.1 hPa | 0 mm | - | - | - |
| 1777622031 | 17.22° C | 60% | 1019 hPa | 0 mm | - | - | - |
| 1777621432 | 16.67° C | 63% | 1019 hPa | 0 mm | - | - | - |
| 1777620832 | 16.11° C | 63% | 1019 hPa | 0 mm | - | - | - |
| 1777620231 | 16.67° C | 62% | 1018.9 hPa | 0 mm | - | - | - |
| 1777619631 | 15° C | 68% | 1019 hPa | 0 mm | - | - | - |
| 1777619032 | 14.44° C | 68% | 1019 hPa | 0 mm | - | - | - |
| 1777618750 | 13.89° C | 68% | 1018.9 hPa | 0 mm | - | - | - |
| 1777618149 | 13.89° C | 69% | 1018.8 hPa | 0 mm | - | - | - |
| 1777617549 | 13.33° C | 69% | 1018.7 hPa | 0 mm | - | - | - |
| 1777616949 | 13.33° C | 69% | 1018.6 hPa | 0 mm | - | - | - |
| 1777616349 | 13.33° C | 70% | 1018.5 hPa | 0 mm | - | - | - |
| 1777615748 | 12.78° C | 69% | 1018.5 hPa | 0 mm | - | - | - |
* Rain latest hour (hover to see other rain measurements)
** Current wind speed in m/s (hover to see current wind gust speed)